DW2408 Weather Reports


time (UTC)temp
F
wind
direction
speed
knots
gust
knots
rain 1hr
in
rain 24hr
in
rain mn
in
humidity
%
barometer
mb
20260507004042 70 0 0.0 7.0 0.00 0.00 0.00 68 1018.4
20260507003540 70 0 1.7 7.0 0.00 0.00 0.00 67 1018.5
20260507003052 71 0 0.9 6.1 0.00 0.00 0.00 67 1018.4
20260507002539 71 0 0.0 4.3 0.00 0.00 0.00 67 1018.3
20260507002039 71 0 0.0 6.1 0.00 0.00 0.00 67 1018.3
20260507001552 71 193 0.0 6.1 0.00 0.00 0.00 66 1018.4
20260507001041 71 165 0.0 6.1 0.00 0.00 0.00 67 1018.4
20260507000541 71 0 0.0 8.7 0.00 0.00 0.00 66 1018.4
20260507000053 71 0 0.9 8.7 0.00 0.00 0.00 66 1018.3
20260506235545 72 185 0.0 7.0 0.00 0.00 0.00 66 1018.5
20260506235041 71 144 0.9 7.0 0.00 0.00 0.00 65 1018.5
20260506234557 72 152 0.0 6.1 0.00 0.00 0.00 65 1018.6
20260506234040 72 0 0.0 6.1 0.00 0.00 0.00 65 1018.6
20260506233540 72 161 0.0 6.1 0.00 0.00 0.00 65 1018.7
20260506233108 72 191 1.7 6.1 0.00 0.00 0.00 65 1018.6
20260506232542 72 173 0.9 7.0 0.00 0.00 0.00 65 1018.7
20260506232042 72 0 1.7 7.0 0.00 0.00 0.00 65 1018.6
20260506231556 72 169 0.0 8.7 0.00 0.00 0.00 65 1018.6
20260506231042 72 0 0.9 8.7 0.00 0.00 0.00 65 1018.6
20260506230539 72 0 1.7 7.0 0.00 0.00 0.00 65 1018.6
20260506230049 72 0 0.0 7.0 0.00 0.00 0.00 65 1018.8
20260506225541 72 0 1.7 7.0 0.00 0.00 0.00 65 1018.7
20260506225041 72 0 0.0 6.1 0.00 0.00 0.00 65 1018.7
20260506224554 72 0 0.0 6.1 0.00 0.00 0.00 66 1018.8
20260506224042 72 191 0.9 6.1 0.00 0.00 0.00 65 1018.8
20260506223540 72 0 0.0 4.3 0.00 0.00 0.00 65 1018.9
20260506223054 72 0 0.0 7.0 0.00 0.00 0.00 65 1019.0
20260506222542 72 0 0.0 7.0 0.00 0.00 0.00 64 1019.1
20260506222041 72 0 1.7 9.6 0.00 0.00 0.00 64 1019.1
20260506221558 72 0 2.6 9.6 0.00 0.00 0.00 63 1019.2
20260506221040 73 0 0.0 6.1 0.00 0.00 0.00 62 1019.2
20260506220543 73 0 0.0 6.1 0.00 0.00 0.00 65 1019.3
20260506220056 72 0 0.0 7.0 0.00 0.00 0.00 65 1019.5
20260506215542 72 0 0.0 7.0 0.00 0.00 0.00 64 1019.6
20260506215041 73 219 2.6 7.0 0.00 0.00 0.00 63 1019.7
20260506214553 73 0 0.0 6.1 0.00 0.00 0.00 63 1019.6
20260506214041 73 0 0.0 7.8 0.00 0.00 0.00 63 1019.7
20260506213540 73 0 0.0 7.8 0.00 0.00 0.00 64 1019.7
20260506213109 73 0 1.7 7.8 0.00 0.00 0.00 63 1019.7
20260506212541 74 213 0.0 6.1 0.00 0.00 0.00 64 1019.8
20260506212041 73 198 0.0 7.0 0.00 0.00 0.00 64 1019.9
20260506211550 73 0 0.0 7.0 0.00 0.00 0.00 63 1019.7
20260506211041 73 0 0.9 6.1 0.00 0.00 0.00 63 1019.8
20260506210541 73 0 0.9 6.1 0.00 0.00 0.00 63 1019.7
20260506210051 73 149 0.0 7.0 0.00 0.00 0.00 65 1019.7
20260506205540 72 0 1.7 7.0 0.00 0.00 0.00 64 1019.7
20260506205040 73 0 0.0 5.2 0.00 0.00 0.00 65 1019.7
20260506204550 72 0 0.0 7.0 0.00 0.00 0.00 65 1019.9
20260506204042 72 168 0.0 7.0 0.00 0.00 0.00 65 1020.1
20260506203541 72 0 0.0 5.2 0.00 0.00 0.00 64 1020.2
20260506203047 73 275 0.0 2.6 0.00 0.00 0.00 64 1020.2
20260506202544 73 0 0.0 6.1 0.00 0.00 0.00 64 1020.3
20260506202042 72 0 0.0 6.1 0.00 0.00 0.00 64 1020.3
20260506201553 72 0 0.0 0.0 0.00 0.00 0.00 65 1020.2
20260506201041 71 0 0.0 0.0 0.00 0.00 0.00 65 1020.3
20260506200540 71 0 0.0 0.0 0.00 0.00 0.00 66 1020.4
20260506200051 71 0 0.0 0.0 0.00 0.00 0.00 67 1020.5
20260506195541 70 0 0.0 0.0 0.00 0.00 0.00 69 1020.4
20260506195043 69 0 0.0 7.0 0.00 0.00 0.00 67 1020.5
20260506194549 69 0 0.9 7.0 0.00 0.00 0.00 69 1020.4
20260506194040 69 0 0.0 3.5 0.00 0.00 0.00 70 1020.5
20260506193541 68 0 0.0 3.5 0.00 0.00 0.00 71 1020.6
20260506193053 68 0 0.0 0.9 0.00 0.00 0.00 70 1020.7
20260506192541 68 0 0.0 7.8 0.00 0.00 0.00 70 1020.8
20260506192041 68 0 0.0 7.8 0.00 0.00 0.00 69 1020.7
20260506191549 69 0 1.7 7.8 0.00 0.00 0.00 71 1020.9
20260506191041 68 295 3.5 7.8 0.00 0.00 0.00 71 1020.7
20260506190543 68 0 0.0 0.0 0.00 0.00 0.00 73 1020.8
20260506190053 67 0 0.0 0.0 0.00 0.00 0.00 72 1020.8
20260506185541 67 0 0.0 6.1 0.00 0.00 0.00 72 1020.9
20260506185041 67 0 0.0 6.1 0.00 0.00 0.00 72 1021.0
20260506184553 67 0 0.0 0.0 0.00 0.00 0.00 72 1020.9
20260506184041 67 0 0.0 0.0 0.00 0.00 0.00 71 1020.9
20260506183541 67 0 0.0 0.0 0.00 0.00 0.00 72 1020.9
20260506183057 67 0 0.0 0.0 0.00 0.00 0.00 72 1020.9
20260506182540 66 0 0.0 0.0 0.00 0.00 0.00 73 1021.1
20260506182040 66 0 0.0 0.0 0.00 0.00 0.00 73 1021.1
20260506181618 66 0 0.0 0.0 0.00 0.00 0.00 74 1021.1
20260506181042 65 0 0.0 0.0 0.00 0.00 0.00 75 1021.0
20260506180541 64 0 0.0 0.0 0.00 0.00 0.00 75 1020.9
20260506180051 65 0 0.0 0.0 0.00 0.00 0.00 75 1020.9
20260506175542 64 0 0.0 0.0 0.00 0.00 0.00 76 1020.9
20260506175044 64 0 0.0 0.0 0.00 0.00 0.00 76 1020.9
20260506174548 64 0 0.0 0.0 0.00 0.00 0.00 77 1020.9
20260506174041 63 0 0.0 0.0 0.00 0.00 0.00 78 1020.8
20260506173541 62 0 0.0 0.0 0.00 0.00 0.00 78 1020.8
20260506173056 62 0 0.0 0.0 0.00 0.00 0.00 77 1020.9
20260506172544 62 0 0.0 0.0 0.00 0.00 0.00 77 1020.9
20260506172044 62 0 0.0 0.0 0.00 0.00 0.00 78 1020.9
20260506171549 62 0 0.0 0.0 0.00 0.00 0.00 78 1020.9
20260506171041 63 0 0.0 0.0 0.00 0.00 0.00 79 1020.9
20260506170540 62 0 0.0 0.0 0.00 0.00 0.00 80 1021.1
20260506170052 61 0 0.0 0.0 0.00 0.00 0.00 80 1021.1
20260506165540 61 0 0.0 0.0 0.00 0.00 0.00 80 1021.0
20260506165044 61 0 0.0 0.0 0.00 0.00 0.00 81 1021.0
20260506164551 61 0 0.0 0.0 0.00 0.00 0.00 82 1021.0
20260506164041 60 0 0.0 0.0 0.00 0.00 0.00 82 1021.1
20260506163540 60 0 0.0 0.0 0.00 0.00 0.00 83 1021.0
20260506163051 60 0 0.0 0.0 0.00 0.00 0.00 83 1021.2
20260506162541 60 0 0.0 0.0 0.00 0.00 0.00 84 1021.1
20260506162040 59 0 0.0 0.0 0.00 0.00 0.00 85 1021.2
20260506161550 59 0 0.0 0.0 0.00 0.00 0.00 86 1021.1
20260506161040 59 0 0.0 0.0 0.00 0.00 0.00 86 1021.1
20260506160541 58 0 0.0 0.0 0.00 0.00 0.00 87 1021.1
20260506160053 58 0 0.0 0.0 0.00 0.00 0.00 87 1021.1
20260506155545 57 0 0.0 0.0 0.00 0.00 0.00 87 1021.1
20260506155042 57 0 0.0 0.0 0.00 0.00 0.00 88 1021.3
20260506154555 57 0 0.0 0.0 0.00 0.00 0.00 88 1021.3
20260506154041 57 0 0.0 0.0 0.00 0.00 0.00 88 1021.3
20260506153540 57 0 0.0 0.0 0.00 0.00 0.00 88 1021.3
20260506153108 57 0 0.0 0.0 0.00 0.00 0.00 88 1021.1
20260506152540 57 0 0.0 0.0 0.00 0.00 0.00 88 1021.1
20260506152040 57 0 0.0 0.0 0.00 0.00 0.00 89 1021.1
20260506151549 56 0 0.0 0.0 0.00 0.00 0.00 89 1021.1
20260506151042 56 0 0.0 0.0 0.00 0.00 0.00 89 1021.0
20260506150540 56 0 0.0 0.0 0.00 0.00 0.00 90 1021.1
20260506150059 56 0 0.0 0.0 0.00 0.00 0.00 90 1021.0
20260506145541 56 0 0.0 0.0 0.00 0.00 0.00 89 1021.1
20260506145041 56 0 0.0 0.0 0.00 0.00 0.00 89 1021.1
20260506144556 55 0 0.0 0.0 0.00 0.00 0.00 89 1021.0
20260506144040 55 0 0.0 0.0 0.00 0.00 0.00 89 1021.0
20260506143541 55 0 0.0 0.0 0.00 0.00 0.00 89 1020.8
20260506143047 55 0 0.0 0.0 0.00 0.00 0.00 89 1020.8
20260506142541 55 0 0.0 0.0 0.00 0.00 0.00 89 1020.9
20260506142042 55 0 0.0 0.0 0.00 0.00 0.00 89 1020.9
20260506141549 55 0 0.0 0.0 0.00 0.00 0.00 89 1020.7
20260506141042 55 0 0.0 0.0 0.00 0.00 0.00 89 1020.7
20260506140546 55 0 0.0 0.0 0.00 0.00 0.00 88 1020.6
20260506140048 55 0 0.0 0.0 0.00 0.00 0.00 88 1020.6
20260506135540 55 0 0.0 0.0 0.00 0.00 0.00 88 1020.5
20260506135040 55 0 0.0 0.0 0.00 0.00 0.00 88 1020.6
20260506134548 55 0 0.0 0.0 0.00 0.00 0.00 88 1020.5
20260506134043 55 0 0.0 0.0 0.00 0.00 0.00 88 1020.5
20260506133540 55 0 0.0 0.0 0.00 0.00 0.00 88 1020.4
20260506133053 55 0 0.0 0.0 0.00 0.00 0.00 88 1020.4
20260506132545 55 0 0.0 0.0 0.00 0.00 0.00 87 1020.4
20260506132045 55 0 0.0 0.0 0.00 0.00 0.00 87 1020.4
20260506131552 55 0 0.0 0.0 0.00 0.00 0.00 87 1020.3
20260506131041 55 0 0.0 0.0 0.00 0.00 0.00 87 1020.3
20260506130543 55 0 0.0 0.0 0.00 0.00 0.00 87 1020.1
20260506130049 55 0 0.0 0.0 0.00 0.00 0.00 87 1020.1
20260506125540 55 0 0.0 0.0 0.00 0.00 0.00 87 1020.2
20260506125040 55 0 0.0 0.0 0.00 0.00 0.00 87 1020.1
20260506124550 55 0 0.0 0.0 0.00 0.00 0.00 87 1020.1
20260506124041 55 0 0.0 0.0 0.00 0.00 0.00 87 1020.1
20260506123540 55 0 0.0 0.0 0.00 0.00 0.00 87 1020.1
20260506123049 55 0 0.0 0.0 0.00 0.00 0.00 87 1020.1
20260506122542 55 0 0.0 0.0 0.00 0.00 0.00 87 1020.1
20260506122037 55 0 0.0 0.0 0.00 0.00 0.00 87 1020.0
20260506121545 55 0 0.0 0.0 0.00 0.00 0.00 87 1020.0
20260506121042 55 0 0.0 0.0 0.00 0.00 0.00 87 1019.9
20260506120541 55 0 0.0 0.0 0.00 0.00 0.00 87 1019.9
20260506120052 55 0 0.0 0.0 0.00 0.00 0.00 87 1020.0
20260506115540 55 0 0.0 0.0 0.00 0.00 0.00 86 1020.0
20260506115037 55 0 0.0 0.0 0.00 0.00 0.00 86 1019.8
20260506114550 55 0 0.0 0.0 0.00 0.00 0.00 87 1019.8
20260506114041 55 0 0.0 0.0 0.00 0.00 0.00 86 1019.8
20260506113541 55 0 0.0 0.0 0.00 0.00 0.00 86 1019.8
20260506113048 55 0 0.0 0.0 0.00 0.00 0.00 86 1019.8
20260506112541 55 0 0.0 0.0 0.00 0.00 0.00 86 1019.7
20260506112042 55 0 0.0 0.0 0.00 0.00 0.00 86 1019.7
20260506111549 55 0 0.0 0.0 0.00 0.00 0.00 86 1019.6
20260506111040 55 0 0.0 0.0 0.00 0.00 0.00 86 1019.6
20260506110543 55 0 0.0 0.0 0.00 0.00 0.00 86 1019.5
20260506110049 55 0 0.0 0.0 0.00 0.00 0.00 86 1019.4
20260506105544 55 0 0.0 0.0 0.00 0.00 0.00 86 1019.3
20260506105044 55 0 0.0 0.0 0.00 0.00 0.00 86 1019.3
20260506104545 55 0 0.0 0.0 0.00 0.00 0.00 86 1019.4
20260506104041 55 0 0.0 0.0 0.00 0.00 0.00 86 1019.3
20260506103540 55 0 0.0 0.0 0.00 0.00 0.00 85 1019.4
20260506103055 55 0 0.0 0.0 0.00 0.00 0.00 85 1019.2
20260506102541 55 0 0.0 0.0 0.00 0.00 0.00 85 1019.2
20260506102040 55 0 0.0 0.0 0.00 0.00 0.00 85 1019.3
20260506101548 55 0 0.0 0.0 0.00 0.00 0.00 85 1019.2
20260506101041 55 0 0.0 0.0 0.00 0.00 0.00 85 1019.1
20260506100544 55 0 0.0 0.0 0.00 0.00 0.00 85 1019.1
20260506100046 55 0 0.0 0.0 0.00 0.00 0.00 85 1019.1
20260506095542 55 0 0.0 0.0 0.00 0.01 0.00 85 1019.2
20260506095041 55 0 0.0 0.0 0.00 0.01 0.00 85 1019.2
20260506094547 55 0 0.0 0.0 0.00 0.01 0.00 85 1019.3
20260506094043 55 0 0.0 0.0 0.00 0.01 0.00 85 1019.4
20260506093542 55 0 0.0 0.0 0.00 0.01 0.00 85 1019.3
20260506093047 55 0 0.0 0.0 0.00 0.01 0.00 85 1019.3
20260506092540 55 0 0.0 0.0 0.00 0.01 0.00 85 1019.3
20260506092040 55 0 0.0 0.0 0.00 0.01 0.00 85 1019.3
20260506091553 55 0 0.0 0.0 0.00 0.01 0.00 85 1019.3
20260506091041 55 0 0.0 0.0 0.00 0.01 0.00 85 1019.3
20260506090544 55 0 0.0 0.0 0.00 0.01 0.00 84 1019.4
20260506090056 55 0 0.0 0.0 0.00 0.01 0.00 84 1019.3
20260506085540 55 0 0.0 0.0 0.00 0.03 0.00 84 1019.4
20260506085041 55 0 0.0 0.0 0.00 0.03 0.00 84 1019.3
20260506084551 55 0 0.0 0.0 0.00 0.03 0.00 84 1019.3
20260506084041 55 0 0.0 0.0 0.00 0.03 0.00 84 1019.3
20260506083542 55 0 0.0 3.5 0.00 0.03 0.00 84 1019.3
20260506083050 55 0 0.0 3.5 0.00 0.03 0.00 84 1019.3
20260506082540 55 0 0.0 3.5 0.00 0.03 0.00 84 1019.2
20260506082040 55 0 0.0 2.6 0.00 0.03 0.00 84 1019.3
20260506081551 55 0 0.0 0.0 0.00 0.03 0.00 84 1019.4
20260506081041 55 0 0.0 0.0 0.00 0.03 0.00 84 1019.3
20260506080540 55 0 0.0 0.0 0.00 0.03 0.00 84 1019.4
20260506073050 55 0 0.0 0.0 0.00 0.11 0.00 84 1019.2
20260506072541 55 0 0.0 0.0 0.00 0.11 0.00 84 1019.2
20260506072041 55 0 0.0 0.0 0.00 0.11 0.00 84 1019.0
20260506071601 55 0 0.0 0.0 0.00 0.11 0.00 84 1018.9
20260506071039 55 0 0.0 0.0 0.00 0.11 0.00 84 1019.0
20260506070540 55 0 0.0 0.0 0.00 0.11 0.00 84 1019.0
20260506062041 55 0 0.0 0.0 0.00 0.13 0.11 85 1018.6
20260506061549 55 0 0.0 0.0 0.00 0.13 0.11 85 1018.7
20260506061040 55 0 0.0 0.0 0.00 0.13 0.11 85 1018.6
20260506060541 55 0 0.0 0.0 0.00 0.13 0.11 86 1018.6
20260506051040 56 0 0.0 0.0 0.00 0.19 0.11 88 1018.4
20260506050540 56 0 0.0 0.0 0.00 0.19 0.11 88 1018.3
20260506045040 56 0 0.0 0.0 0.00 0.25 0.11 87 1018.2
20260506044542 56 0 0.0 0.0 0.00 0.25 0.11 87 1018.2
20260506044040 56 0 0.0 0.0 0.00 0.25 0.11 87 1018.0
20260506043540 56 0 0.0 0.0 0.00 0.25 0.11 87 1017.9
20260506043049 56 0 0.0 0.0 0.00 0.25 0.11 87 1017.9
20260506042541 56 0 0.0 0.0 0.00 0.25 0.11 86 1017.9
20260506042041 56 0 0.0 0.0 0.00 0.25 0.11 86 1017.8
20260506041551 56 0 0.0 0.0 0.00 0.25 0.11 86 1017.7
20260506041040 56 0 0.0 0.0 0.00 0.25 0.11 86 1017.7
20260506040540 56 0 0.0 0.0 0.00 0.25 0.11 86 1017.7
20260506040051 56 0 0.0 0.0 0.00 0.25 0.11 86 1017.6
20260506035540 56 0 0.0 0.0 0.00 0.26 0.11 86 1017.4
20260506035042 56 0 0.0 0.0 0.00 0.26 0.11 85 1017.5
20260506034559 57 0 0.0 0.0 0.00 0.26 0.11 85 1017.4
20260506034044 57 0 0.0 0.0 0.00 0.26 0.11 85 1017.3
20260506033541 57 0 0.0 0.0 0.00 0.26 0.11 85 1017.2
20260506033049 57 0 0.0 0.0 0.00 0.26 0.11 85 1017.2
20260506032546 57 0 0.0 0.0 0.00 0.26 0.11 85 1016.9
20260506032044 57 0 0.0 0.0 0.00 0.26 0.11 84 1017.0
20260506031550 57 0 0.0 0.0 0.00 0.26 0.11 84 1016.9
20260506031039 57 0 0.0 0.0 0.00 0.26 0.11 84 1016.8
20260506030542 58 0 0.0 0.0 0.00 0.26 0.11 84 1016.7
20260506030051 58 0 0.0 0.0 0.00 0.26 0.11 83 1016.6
20260506025541 58 0 0.0 0.0 0.00 0.26 0.11 83 1016.7
20260506025043 58 0 0.0 0.0 0.00 0.26 0.11 83 1016.6
20260506024607 58 0 0.0 0.0 0.00 0.26 0.11 83 1016.6
20260506024041 58 0 0.0 0.0 0.00 0.26 0.11 82 1016.5
20260506023541 58 0 0.0 3.5 0.00 0.26 0.11 82 1016.5
20260506023051 59 0 0.0 5.2 0.00 0.26 0.11 82 1016.6
20260506022540 59 0 0.0 5.2 0.00 0.26 0.11 82 1016.5
20260506022040 59 0 0.0 6.1 0.00 0.26 0.11 81 1016.6
20260506021552 59 0 0.0 6.1 0.00 0.26 0.11 81 1016.6
20260506021039 59 0 0.0 5.2 0.00 0.26 0.11 81 1016.4
20260506020539 59 193 0.0 5.2 0.00 0.26 0.11 80 1016.2
20260506020053 59 0 0.9 7.8 0.00 0.26 0.11 80 1016.2
20260506015542 59 0 0.0 8.7 0.00 0.26 0.11 80 1016.2
20260506015040 59 121 2.6 8.7 0.00 0.26 0.11 79 1016.1
20260506014551 60 0 1.7 7.0 0.00 0.26 0.11 79 1016.0
20260506014043 60 174 0.0 7.0 0.00 0.26 0.11 79 1016.0
20260506013544 60 206 0.9 7.0 0.00 0.26 0.11 79 1016.1
20260506013104 60 0 0.0 7.8 0.00 0.26 0.11 79 1016.0
20260506012549 60 0 0.0 7.8 0.00 0.26 0.11 80 1016.1
20260506012041 60 194 0.0 0.0 0.00 0.26 0.11 79 1016.1
20260506011556 60 0 0.0 6.1 0.00 0.26 0.11 79 1016.2
20260506011040 60 0 0.0 7.0 0.00 0.26 0.11 79 1016.0
20260506010540 60 0 0.0 7.0 0.00 0.26 0.11 78 1016.1
20260506010047 60 0 0.0 7.8 0.00 0.26 0.11 78 1016.1
20260506005540 60 184 1.7 9.6 0.00 0.26 0.11 78 1016.0
20260506005039 61 154 1.7 9.6 0.00 0.26 0.11 78 1015.9
20260506004551 61 0 0.0 2.6 0.00 0.26 0.11 79 1015.8